Regional Weather Roundup
Issued by NWS Newport/Morehead, NC

Current Version | Previous Version | Graphics & Text | Print | Product List | Glossary Off
Versions: 1 2 3 4 5 6 7 8 9 10 11 12 13 14 15 16 17 18 19 20 21 22 23 24 25 26 27 28 29 30 31 32 33 34 35 36 37 38 39 40 41 42 43 44 45 46 47 48 49 50

000
ASUS42 KMHX 251713
RWRMHX
WEATHER ROUNDUP FOR EASTERN NORTH CAROLINA
NATIONAL WEATHER SERVICE NEWPORT/MOREHEAD CITY NC
100 PM EDT THU MAY 25 2017

NOTE: "FAIR" INDICATES FEW OR NO CLOUDS BELOW 12,000 FEET
WITH NO SIGNIFICANT WEATHER AND/OR OBSTRUCTIONS TO VISIBILITY

NCZ015>017-031-032-045>047-102-103-251800-
NORTH COAST

CITY           SKY/WX    TMP DP  RH WIND       PRES   REMARKS
EDENTON        PTSUNNY   79  63  58 SW15G21   29.56F
ELIZABETH CITY PTSUNNY   79  67  66 SW20G30   29.54F
KITTY HAWK     MOSUNNY   79  60  51 SW17G26   29.55F
MANTEO         CLOUDY    78  60  53 W21G28    29.56F

$$

NCZ045>047-081-094-103-104-251800-
CENTRAL COAST

CITY           SKY/WX    TMP DP  RH WIND       PRES   REMARKS
FRISCO         NOT AVBL

$$

NCZ095-097-098-100-101-251800-
SOUTHERN COAST

CITY           SKY/WX    TMP DP  RH WIND       PRES   REMARKS
BEAUFORT       SUNNY     77  61  57 SW24G36   29.61F
CEDAR ISLAND   NOT AVBL
JACKSONVILLE   NOT AVBL
PINEY ISLAND   SUNNY    N/A N/A N/A SW23G35   29.58F
WILMINGTON     MOSUNNY   77  58  51 SW15G29   29.62S


$$

NCZ011>013-027>030-043-044-078>080-089-090>093-098-251800-
COASTAL PLAIN

CITY           SKY/WX    TMP DP  RH WIND       PRES   REMARKS
AHOSKIE          N/A     74  61  63 S5        29.54F
CLINTON        MOSUNNY   73  56  55 SW13G26   29.60S
ELIZABETHTOWN    N/A     75  51  43 SW17G26   29.62S
GOLDSBORO      PTSUNNY   76  56  48 SW17G25   29.55F
GREENVILLE     CLOUDY    77  59  53 SW14      29.60F
HAVELOCK       MOSUNNY   81  54  39 W24G33    29.60F
KENANSVILLE    MOSUNNY   75  57  53 SW14G20   29.59F
KINSTON        PTSUNNY   77  55  47 SW16G22   29.58F
NEW BERN       PTSUNNY   77  58  51 SW16G24   29.59F
RICHLANDS      MOSUNNY   77  60  55 SW15G23   29.60F
ROCKY MOUNT    MOSUNNY   75  58  55 SW15G25   29.55F
WASHINGTON     PTSUNNY   76  60  56 SW16G23   29.56F
WHITEVILLE     PTSUNNY   75  53  45 SW13G22   29.63S

$$

AMZ130-135-150-152-154-156-158-170-250-252-270-ANZ085-086-088-633-658-670-251800-
MARINE OBSERVATIONS

STATION/POSITION TIME  TEMP    WIND        PRES    WAVE   SWELL
                       AIR SEA DIR/SP/G            HT/PER HT/PER
                 (UTC) (F)     (DEG/KT/KT) (MB)    (FT/S) (FT/S)
CHESAPEAKE LIGHT NOT AVBL
64 E VA BEACH    1650   68 65  190/ 14/ 17 1001.6    6/ 7   5/ 7
DUCK             1648   77 63  220/ 18/ 24 1000.2
2 E DUCK         1630      64                N/A     3/ 7
OREGON INLET     1642   75 70  200/ 19/ 24 1001.2
13E OREGON INLT  1648      66                N/A     7/ 8   2/11
HATTERAS CG      1648   76 73  210/ 15/ 22 1002.7
DIAMOND BUOY     1650   76 78  240/ 25/ 29 1003.1   10/ 8
CAPE LOOKOUT     1700   75     220/ 20/ 27 1002.7
BEAUFORT LAB     1648   76 72  230/ 11/ 17 1001.9
30 SE NEW RVR IN 1608   74 75  250/ 23/ 31 1003.6
30 SE NEW RVR IN 1643      75                N/A    10/ 7   2/11
27 SE WRIGHTSVLE 1608   73 75  220/ 21/ 29 1003.0
5 SE WRIGHTSVLE  1608   73 74  220/ 16/ 29 1003.9
225 S CAPE HAT   1650   77 76  180/ 21/ 27 1008.5   10/ 8
41 SE CHARLESTON 1650   73 75  230/ 25/ 29 1005.6    7/ 7   3/ 9

$$



USA.gov is the U.S. government's official web portal to all federal, state and local government web resources and services.